Location: Ash Shall?l al Awwal
(24.0167°N, 32.8667°E)
Time: 05:27:54
(UTC+00:00)

FUSE - Pass Details

Date: 02 March 2021
Orbit: 742 x 756 km, 25.0° (Epoch: 12 April)

Event Time Altitude Azimuth Distance (km) Brightness Sun altitude
Rises 17:41:45 0° 274° (W) 3,193 8.6 -25.9°
Reaches altitude 10° 17:44:13 10° 275° (W) 2,268 7.5 -26.4°
Enters shadow 17:49:18 77° 315° (NW) 772 3.9 -27.6°
